| time (UTC) | temp C | wind direction | speed KPH | gust KPH | rain 1hr cm | rain 24hr cm | rain mn cm | humidity % | barometer mb |
| 20260508115815 | 10 | 238 | 1.6 | 1.6 | 0.00 | 0.00 | 0.00 | 74 | 1005.3 |
| 20260508115312 | 10 | 220 | 1.6 | 3.2 | 0.00 | 0.00 | 0.00 | 73 | 1005.4 |
| 20260508114809 | 9 | 236 | 4.8 | 4.8 | 0.00 | 0.00 | 0.00 | 74 | 1005.4 |
| 20260508114306 | 9 | 238 | 0.0 | 1.6 | 0.00 | 0.00 | 0.00 | 76 | 1005.4 |
| 20260508113802 | 8 | 233 | 0.0 | 0.0 | 0.00 | 0.00 | 0.00 | 80 | 1005.3 |
| 20260508113301 | 7 | 236 | 0.0 | 0.0 | 0.00 | 0.00 | 0.00 | 84 | 1005.3 |
| 20260508112756 | 6 | 238 | 1.6 | 1.6 | 0.00 | 0.00 | 0.00 | 90 | 1005.3 |
| 20260508112254 | 5 | 244 | 0.0 | 0.0 | 0.00 | 0.00 | 0.00 | 93 | 1005.2 |
| 20260508111749 | 5 | 242 | 0.0 | 0.0 | 0.00 | 0.00 | 0.00 | 93 | 1005.2 |
| 20260508111248 | 5 | 236 | 0.0 | 0.0 | 0.00 | 0.00 | 0.00 | 93 | 1005.4 |
| 20260508110745 | 5 | 231 | 0.0 | 0.0 | 0.00 | 0.00 | 0.00 | 93 | 1005.4 |
| 20260508110242 | 5 | 228 | 1.6 | 1.6 | 0.00 | 0.00 | 0.00 | 93 | 1005.1 |
| 20260508105742 | 5 | 231 | 0.0 | 0.0 | 0.00 | 0.00 | 0.00 | 93 | 1005.3 |
| 20260508105239 | 5 | 230 | 0.0 | 0.0 | 0.00 | 0.00 | 0.00 | 93 | 1005.2 |
| 20260508104736 | 5 | 231 | 0.0 | 0.0 | 0.00 | 0.00 | 0.00 | 93 | 1005.2 |
| 20260508104233 | 5 | 231 | 0.0 | 0.0 | 0.00 | 0.00 | 0.00 | 92 | 1005.1 |
| 20260508103730 | 5 | 238 | 0.0 | 0.0 | 0.00 | 0.00 | 0.00 | 92 | 1004.9 |
| 20260508103227 | 5 | 235 | 0.0 | 0.0 | 0.00 | 0.00 | 0.00 | 92 | 1004.8 |
| 20260508102724 | 5 | 235 | 0.0 | 0.0 | 0.00 | 0.00 | 0.00 | 92 | 1005.0 |
| 20260508102222 | 5 | 235 | 0.0 | 0.0 | 0.00 | 0.00 | 0.00 | 92 | 1004.8 |
| 20260508101719 | 5 | 234 | 1.6 | 1.6 | 0.00 | 0.00 | 0.00 | 91 | 1005.0 |
| 20260508101217 | 5 | 235 | 0.0 | 0.0 | 0.00 | 0.00 | 0.00 | 91 | 1004.9 |
| 20260508100714 | 5 | 235 | 0.0 | 0.0 | 0.00 | 0.00 | 0.00 | 90 | 1004.9 |
| 20260508100212 | 5 | 235 | 0.0 | 0.0 | 0.00 | 0.00 | 0.00 | 91 | 1004.9 |
| 20260508095708 | 5 | 235 | 0.0 | 0.0 | 0.00 | 0.00 | 0.00 | 91 | 1005.1 |
| 20260508095206 | 6 | 228 | 1.6 | 1.6 | 0.00 | 0.00 | 0.00 | 91 | 1005.1 |
| 20260508094702 | 6 | 228 | 1.6 | 1.6 | 0.00 | 0.00 | 0.00 | 91 | 1005.1 |
| 20260508094159 | 6 | 230 | 0.0 | 1.6 | 0.00 | 0.00 | 0.00 | 91 | 1005.1 |
| 20260508093656 | 6 | 239 | 0.0 | 0.0 | 0.00 | 0.00 | 0.00 | 90 | 1005.2 |
| 20260508093154 | 6 | 240 | 0.0 | 0.0 | 0.00 | 0.00 | 0.00 | 91 | 1005.3 |
| 20260508092651 | 6 | 243 | 0.0 | 0.0 | 0.00 | 0.00 | 0.00 | 90 | 1005.4 |
| 20260508092149 | 6 | 232 | 0.0 | 0.0 | 0.00 | 0.00 | 0.00 | 90 | 1005.4 |
| 20260508091646 | 6 | 232 | 0.0 | 0.0 | 0.00 | 0.00 | 0.00 | 90 | 1005.2 |
| 20260508091143 | 6 | 232 | 0.0 | 0.0 | 0.00 | 0.00 | 0.00 | 90 | 1005.2 |
| 20260508090641 | 6 | 232 | 0.0 | 0.0 | 0.00 | 0.00 | 0.00 | 89 | 1005.4 |
| 20260508090138 | 6 | 232 | 0.0 | 0.0 | 0.00 | 0.00 | 0.00 | 88 | 1005.6 |
| 20260508085634 | 6 | 233 | 0.0 | 0.0 | 0.00 | 0.00 | 0.00 | 88 | 1005.6 |
| 20260508085132 | 6 | 232 | 0.0 | 0.0 | 0.00 | 0.00 | 0.00 | 88 | 1005.6 |
| 20260508084628 | 6 | 232 | 0.0 | 0.0 | 0.00 | 0.00 | 0.00 | 87 | 1005.6 |
| 20260508084125 | 7 | 232 | 0.0 | 0.0 | 0.00 | 0.00 | 0.00 | 86 | 1005.4 |
| 20260508083622 | 7 | 232 | 0.0 | 0.0 | 0.00 | 0.00 | 0.00 | 86 | 1005.4 |
| 20260508083120 | 7 | 231 | 0.0 | 0.0 | 0.00 | 0.00 | 0.00 | 84 | 1005.2 |
| 20260508082615 | 8 | 240 | 0.0 | 0.0 | 0.00 | 0.00 | 0.00 | 81 | 1005.5 |
| 20260508082112 | 8 | 266 | 0.0 | 1.6 | 0.00 | 0.00 | 0.00 | 82 | 1005.1 |
| 20260508081610 | 8 | 233 | 0.0 | 0.0 | 0.00 | 0.00 | 0.00 | 82 | 1005.4 |
| 20260508081106 | 8 | 233 | 0.0 | 0.0 | 0.00 | 0.00 | 0.00 | 81 | 1005.2 |
| 20260508080604 | 8 | 236 | 0.0 | 0.0 | 0.00 | 0.00 | 0.00 | 80 | 1005.3 |
| 20260508080101 | 8 | 223 | 1.6 | 1.6 | 0.00 | 0.00 | 0.00 | 80 | 1005.2 |
| 20260508075557 | 8 | 226 | 3.2 | 3.2 | 0.00 | 0.00 | 0.00 | 79 | 1005.0 |
| 20260508075055 | 8 | 225 | 4.8 | 4.8 | 0.00 | 0.00 | 0.00 | 82 | 1005.2 |
| 20260508074552 | 8 | 230 | 1.6 | 1.6 | 0.00 | 0.00 | 0.00 | 82 | 1005.5 |
| 20260508074049 | 8 | 250 | 0.0 | 1.6 | 0.00 | 0.00 | 0.00 | 81 | 1005.6 |
| 20260508073546 | 8 | 229 | 1.6 | 3.2 | 0.00 | 0.00 | 0.00 | 80 | 1005.6 |
| 20260508073044 | 8 | 240 | 1.6 | 1.6 | 0.00 | 0.00 | 0.00 | 79 | 1005.5 |
| 20260508072539 | 8 | 229 | 0.0 | 0.0 | 0.00 | 0.00 | 0.00 | 80 | 1005.6 |
| 20260508072037 | 7 | 231 | 0.0 | 0.0 | 0.00 | 0.00 | 0.00 | 81 | 1005.8 |
| 20260508071535 | 7 | 228 | 0.0 | 0.0 | 0.00 | 0.00 | 0.00 | 81 | 1005.7 |
| 20260508071032 | 7 | 231 | 0.0 | 0.0 | 0.00 | 0.00 | 0.00 | 81 | 1005.9 |
| 20260508070530 | 7 | 234 | 0.0 | 0.0 | 0.00 | 0.00 | 0.00 | 81 | 1005.7 |
| 20260508070028 | 7 | 234 | 0.0 | 0.0 | 0.00 | 0.00 | 0.00 | 80 | 1006.0 |
| 20260508065525 | 7 | 232 | 0.0 | 0.0 | 0.00 | 0.00 | 0.00 | 81 | 1005.9 |
| 20260508065024 | 7 | 232 | 0.0 | 0.0 | 0.00 | 0.00 | 0.00 | 79 | 1005.7 |
| 20260508064521 | 7 | 222 | 3.2 | 3.2 | 0.00 | 0.00 | 0.00 | 81 | 1006.0 |
| 20260508064018 | 7 | 233 | 1.6 | 1.6 | 0.00 | 0.00 | 0.00 | 85 | 1005.9 |
| 20260508063515 | 7 | 239 | 0.0 | 0.0 | 0.00 | 0.00 | 0.00 | 86 | 1006.0 |
| 20260508063013 | 7 | 232 | 0.0 | 0.0 | 0.00 | 0.00 | 0.00 | 86 | 1006.0 |
| 20260508062511 | 7 | 232 | 0.0 | 0.0 | 0.00 | 0.00 | 0.00 | 85 | 1006.2 |
| 20260508062007 | 7 | 233 | 0.0 | 0.0 | 0.00 | 0.00 | 0.00 | 84 | 1006.1 |
| 20260508061506 | 7 | 232 | 0.0 | 0.0 | 0.00 | 0.00 | 0.00 | 83 | 1006.2 |
| 20260508061001 | 7 | 241 | 0.0 | 0.0 | 0.00 | 0.00 | 0.00 | 85 | 1006.2 |
| 20260508060459 | 7 | 233 | 0.0 | 0.0 | 0.00 | 0.00 | 0.00 | 86 | 1006.4 |
| 20260508055955 | 7 | 224 | 1.6 | 3.2 | 0.00 | 0.00 | 0.00 | 87 | 1006.4 |
| 20260508055452 | 7 | 232 | 0.0 | 1.6 | 0.00 | 0.00 | 0.00 | 87 | 1006.1 |
| 20260508054948 | 6 | 231 | 0.0 | 0.0 | 0.00 | 0.00 | 0.00 | 87 | 1006.1 |
| 20260508054445 | 6 | 231 | 0.0 | 0.0 | 0.00 | 0.00 | 0.00 | 86 | 1006.0 |
| 20260508053942 | 6 | 231 | 0.0 | 0.0 | 0.00 | 0.00 | 0.00 | 86 | 1005.9 |
| 20260508053439 | 6 | 231 | 0.0 | 0.0 | 0.00 | 0.00 | 0.00 | 87 | 1005.9 |
| 20260508052937 | 6 | 231 | 0.0 | 0.0 | 0.00 | 0.00 | 0.00 | 87 | 1005.9 |
| 20260508052434 | 6 | 231 | 0.0 | 0.0 | 0.00 | 0.00 | 0.00 | 87 | 1005.8 |
| 20260508051930 | 6 | 231 | 0.0 | 0.0 | 0.00 | 0.00 | 0.00 | 87 | 1006.0 |
| 20260508051426 | 6 | 231 | 0.0 | 0.0 | 0.00 | 0.00 | 0.00 | 86 | 1006.0 |
| 20260508050922 | 6 | 231 | 0.0 | 0.0 | 0.00 | 0.00 | 0.00 | 86 | 1006.0 |
| 20260508050419 | 6 | 231 | 0.0 | 0.0 | 0.00 | 0.00 | 0.00 | 86 | 1006.1 |
| 20260508045915 | 6 | 231 | 0.0 | 0.0 | 0.00 | 0.00 | 0.00 | 86 | 1006.2 |
| 20260508045413 | 6 | 231 | 0.0 | 0.0 | 0.00 | 0.00 | 0.00 | 86 | 1006.0 |
| 20260508044911 | 6 | 231 | 0.0 | 0.0 | 0.00 | 0.00 | 0.00 | 85 | 1006.0 |
| 20260508044408 | 6 | 231 | 0.0 | 0.0 | 0.00 | 0.00 | 0.00 | 84 | 1006.0 |
| 20260508043903 | 7 | 231 | 0.0 | 0.0 | 0.00 | 0.00 | 0.00 | 83 | 1005.9 |
| 20260508043401 | 7 | 231 | 0.0 | 0.0 | 0.00 | 0.00 | 0.00 | 82 | 1005.9 |
| 20260508042856 | 6 | 231 | 0.0 | 0.0 | 0.00 | 0.00 | 0.00 | 82 | 1006.0 |
| 20260508042354 | 7 | 231 | 0.0 | 0.0 | 0.00 | 0.00 | 0.00 | 84 | 1006.1 |
| 20260508041851 | 7 | 231 | 0.0 | 0.0 | 0.00 | 0.00 | 0.00 | 84 | 1006.2 |
| 20260508041347 | 7 | 231 | 0.0 | 0.0 | 0.00 | 0.00 | 0.00 | 83 | 1005.9 |
| 20260508040844 | 7 | 231 | 0.0 | 0.0 | 0.00 | 0.00 | 0.00 | 83 | 1006.0 |
| 20260508040341 | 7 | 231 | 0.0 | 0.0 | 0.00 | 0.00 | 0.00 | 82 | 1005.9 |
| 20260508035839 | 7 | 231 | 0.0 | 0.0 | 0.00 | 0.00 | 0.00 | 81 | 1006.2 |
| 20260508035336 | 7 | 232 | 0.0 | 0.0 | 0.00 | 0.00 | 0.00 | 81 | 1006.1 |
| 20260508034833 | 7 | 231 | 0.0 | 0.0 | 0.00 | 0.00 | 0.00 | 81 | 1006.3 |
| 20260508034330 | 7 | 231 | 0.0 | 0.0 | 0.00 | 0.00 | 0.00 | 82 | 1006.2 |
| 20260508033827 | 7 | 231 | 0.0 | 0.0 | 0.00 | 0.00 | 0.00 | 81 | 1006.2 |
| 20260508033325 | 7 | 231 | 0.0 | 0.0 | 0.00 | 0.00 | 0.00 | 81 | 1006.3 |
| 20260508032822 | 7 | 231 | 0.0 | 0.0 | 0.00 | 0.00 | 0.00 | 80 | 1006.2 |
| 20260508032320 | 8 | 231 | 0.0 | 0.0 | 0.00 | 0.00 | 0.00 | 78 | 1006.0 |
| 20260508031816 | 8 | 231 | 0.0 | 0.0 | 0.00 | 0.00 | 0.00 | 75 | 1006.4 |
| 20260508031313 | 7 | 231 | 0.0 | 0.0 | 0.00 | 0.00 | 0.00 | 74 | 1006.2 |
| 20260508030809 | 7 | 231 | 0.0 | 0.0 | 0.00 | 0.00 | 0.00 | 76 | 1006.4 |
| 20260508030307 | 8 | 231 | 0.0 | 0.0 | 0.00 | 0.00 | 0.00 | 78 | 1006.4 |
| 20260508025803 | 8 | 231 | 0.0 | 0.0 | 0.00 | 0.00 | 0.00 | 74 | 1006.3 |
| 20260508025300 | 8 | 231 | 0.0 | 0.0 | 0.00 | 0.00 | 0.00 | 73 | 1006.2 |
| 20260508024756 | 8 | 231 | 0.0 | 0.0 | 0.00 | 0.00 | 0.00 | 73 | 1006.3 |
| 20260508024253 | 8 | 231 | 0.0 | 0.0 | 0.00 | 0.00 | 0.00 | 74 | 1006.5 |
| 20260508023750 | 8 | 231 | 0.0 | 0.0 | 0.00 | 0.00 | 0.00 | 72 | 1006.3 |
| 20260508023247 | 9 | 231 | 0.0 | 0.0 | 0.00 | 0.00 | 0.00 | 68 | 1006.5 |
| 20260508022743 | 9 | 229 | 1.6 | 1.6 | 0.00 | 0.00 | 0.00 | 67 | 1006.3 |
| 20260508022240 | 8 | 225 | 1.6 | 1.6 | 0.00 | 0.00 | 0.00 | 66 | 1006.1 |
| 20260508021737 | 7 | 228 | 1.6 | 1.6 | 0.00 | 0.00 | 0.00 | 79 | 1006.3 |
| 20260508021232 | 7 | 233 | 0.0 | 0.0 | 0.00 | 0.00 | 0.00 | 82 | 1006.1 |
| 20260508020729 | 7 | 233 | 0.0 | 0.0 | 0.00 | 0.00 | 0.00 | 81 | 1006.0 |
| 20260508020227 | 7 | 234 | 0.0 | 0.0 | 0.00 | 0.00 | 0.00 | 82 | 1006.2 |
| 20260508015724 | 7 | 232 | 0.0 | 1.6 | 0.00 | 0.00 | 0.00 | 81 | 1006.2 |
| 20260508015221 | 7 | 235 | 0.0 | 0.0 | 0.00 | 0.00 | 0.00 | 83 | 1006.0 |
| 20260508014718 | 6 | 242 | 0.0 | 1.6 | 0.00 | 0.00 | 0.00 | 82 | 1006.2 |
| 20260508014214 | 6 | 231 | 0.0 | 0.0 | 0.00 | 0.00 | 0.00 | 81 | 1006.2 |
| 20260508013710 | 6 | 231 | 0.0 | 0.0 | 0.00 | 0.00 | 0.00 | 81 | 1006.0 |
| 20260508013207 | 6 | 231 | 0.0 | 0.0 | 0.00 | 0.00 | 0.00 | 81 | 1005.9 |
| 20260508012705 | 6 | 231 | 0.0 | 0.0 | 0.00 | 0.00 | 0.00 | 80 | 1006.0 |
| 20260508012201 | 7 | 231 | 0.0 | 0.0 | 0.00 | 0.00 | 0.00 | 79 | 1005.9 |
| 20260508011659 | 7 | 231 | 0.0 | 0.0 | 0.00 | 0.00 | 0.00 | 78 | 1005.9 |
| 20260508011157 | 7 | 231 | 0.0 | 0.0 | 0.00 | 0.00 | 0.00 | 78 | 1005.9 |
| 20260508010653 | 7 | 231 | 0.0 | 0.0 | 0.00 | 0.00 | 0.00 | 77 | 1005.8 |
| 20260508010151 | 7 | 231 | 0.0 | 0.0 | 0.00 | 0.00 | 0.00 | 76 | 1005.7 |
| 20260508005648 | 7 | 231 | 0.0 | 0.0 | 0.00 | 0.00 | 0.00 | 74 | 1005.8 |
| 20260508005144 | 8 | 231 | 0.0 | 0.0 | 0.00 | 0.00 | 0.00 | 73 | 1005.8 |
| 20260508004640 | 8 | 231 | 0.0 | 0.0 | 0.00 | 0.00 | 0.00 | 68 | 1005.8 |
| 20260508004137 | 8 | 231 | 0.0 | 0.0 | 0.00 | 0.00 | 0.00 | 69 | 1005.6 |
| 20260508003633 | 8 | 231 | 0.0 | 0.0 | 0.00 | 0.00 | 0.00 | 66 | 1005.9 |
| 20260508003131 | 8 | 231 | 0.0 | 0.0 | 0.00 | 0.00 | 0.00 | 65 | 1005.7 |
| 20260508002627 | 9 | 231 | 0.0 | 0.0 | 0.00 | 0.00 | 0.00 | 66 | 1006.0 |
| 20260508002125 | 10 | 231 | 0.0 | 0.0 | 0.00 | 0.00 | 0.00 | 62 | 1005.8 |
| 20260508001620 | 10 | 231 | 0.0 | 0.0 | 0.00 | 0.00 | 0.00 | 59 | 1005.8 |
| 20260508001116 | 11 | 230 | 1.6 | 1.6 | 0.00 | 0.00 | 0.00 | 54 | 1005.6 |
| 20260508000612 | 11 | 231 | 0.0 | 1.6 | 0.00 | 0.00 | 0.00 | 56 | 1005.7 |
| 20260508000110 | 11 | 232 | 1.6 | 1.6 | 0.00 | 0.00 | 0.00 | 52 | 1005.3 |
| 20260507235607 | 11 | 239 | 0.0 | 1.6 | 0.00 | 0.00 | 0.00 | 51 | 1005.4 |
| 20260507235104 | 11 | 225 | 3.2 | 3.2 | 0.00 | 0.00 | 0.00 | 48 | 1005.2 |
| 20260507234600 | 12 | 239 | 1.6 | 1.6 | 0.00 | 0.00 | 0.00 | 50 | 1005.5 |
| 20260507234057 | 12 | 216 | 3.2 | 3.2 | 0.00 | 0.00 | 0.00 | 48 | 1005.4 |
| 20260507233554 | 12 | 238 | 3.2 | 3.2 | 0.00 | 0.00 | 0.00 | 45 | 1005.3 |
| 20260507233053 | 12 | 225 | 1.6 | 3.2 | 0.00 | 0.00 | 0.00 | 46 | 1005.4 |
| 20260507232548 | 12 | 236 | 1.6 | 1.6 | 0.00 | 0.00 | 0.00 | 46 | 1005.3 |
| 20260507232046 | 12 | 215 | 3.2 | 3.2 | 0.00 | 0.00 | 0.00 | 44 | 1005.1 |
| 20260507231542 | 12 | 258 | 1.6 | 1.6 | 0.00 | 0.00 | 0.00 | 43 | 1005.0 |
| 20260507231040 | 12 | 235 | 1.6 | 1.6 | 0.00 | 0.00 | 0.00 | 44 | 1005.3 |
| 20260507230536 | 12 | 236 | 4.8 | 4.8 | 0.00 | 0.00 | 0.00 | 47 | 1005.1 |
| 20260507230033 | 12 | 220 | 1.6 | 3.2 | 0.00 | 0.00 | 0.00 | 48 | 1005.2 |
| 20260507225527 | 12 | 242 | 3.2 | 4.8 | 0.00 | 0.00 | 0.00 | 48 | 1005.2 |
| 20260507225024 | 12 | 234 | 1.6 | 1.6 | 0.00 | 0.00 | 0.00 | 49 | 1005.2 |
| 20260507224520 | 12 | 242 | 3.2 | 4.8 | 0.00 | 0.00 | 0.00 | 44 | 1005.1 |
| 20260507224017 | 12 | 243 | 1.6 | 1.6 | 0.00 | 0.00 | 0.00 | 46 | 1005.2 |
| 20260507223513 | 13 | 222 | 4.8 | 4.8 | 0.00 | 0.00 | 0.00 | 43 | 1005.2 |
| 20260507223010 | 13 | 235 | 3.2 | 4.8 | 0.00 | 0.00 | 0.00 | 47 | 1005.2 |
| 20260507222507 | 13 | 285 | 3.2 | 4.8 | 0.00 | 0.00 | 0.00 | 44 | 1005.3 |
| 20260507222003 | 13 | 238 | 3.2 | 3.2 | 0.00 | 0.00 | 0.00 | 46 | 1005.2 |
| 20260507221500 | 13 | 231 | 4.8 | 8.0 | 0.00 | 0.00 | 0.00 | 43 | 1005.2 |
| 20260507220956 | 13 | 245 | 4.8 | 4.8 | 0.00 | 0.00 | 0.00 | 43 | 1005.2 |
| 20260507220454 | 13 | 261 | 4.8 | 8.0 | 0.00 | 0.00 | 0.00 | 42 | 1005.1 |
| 20260507215951 | 13 | 230 | 1.6 | 1.6 | 0.00 | 0.00 | 0.00 | 48 | 1005.1 |
| 20260507215447 | 13 | 254 | 4.8 | 9.7 | 0.00 | 0.00 | 0.00 | 44 | 1005.0 |
| 20260507214945 | 14 | 237 | 4.8 | 4.8 | 0.00 | 0.00 | 0.00 | 43 | 1005.0 |
| 20260507214442 | 13 | 240 | 1.6 | 3.2 | 0.00 | 0.00 | 0.00 | 44 | 1005.0 |
| 20260507213938 | 13 | 235 | 6.4 | 9.7 | 0.00 | 0.00 | 0.00 | 42 | 1005.0 |
| 20260507213434 | 13 | 247 | 3.2 | 3.2 | 0.00 | 0.00 | 0.00 | 45 | 1005.1 |
| 20260507212931 | 15 | 244 | 3.2 | 3.2 | 0.00 | 0.00 | 0.00 | 44 | 1005.1 |
| 20260507212427 | 14 | 240 | 4.8 | 8.0 | 0.00 | 0.00 | 0.00 | 43 | 1005.2 |
| 20260507211924 | 14 | 260 | 4.8 | 4.8 | 0.00 | 0.00 | 0.00 | 43 | 1004.8 |
| 20260507211421 | 14 | 245 | 3.2 | 3.2 | 0.00 | 0.00 | 0.00 | 43 | 1004.8 |
| 20260507210917 | 13 | 246 | 1.6 | 1.6 | 0.00 | 0.00 | 0.00 | 45 | 1004.8 |
| 20260507210415 | 14 | 240 | 3.2 | 3.2 | 0.00 | 0.00 | 0.00 | 46 | 1005.0 |
| 20260507205911 | 14 | 237 | 9.7 | 11.3 | 0.00 | 0.00 | 0.00 | 45 | 1004.8 |
| 20260507205409 | 14 | 227 | 4.8 | 4.8 | 0.00 | 0.00 | 0.00 | 46 | 1004.8 |
| 20260507204904 | 14 | 241 | 3.2 | 3.2 | 0.00 | 0.00 | 0.00 | 46 | 1004.8 |
| 20260507204401 | 14 | 245 | 3.2 | 3.2 | 0.00 | 0.00 | 0.00 | 46 | 1004.7 |
| 20260507203859 | 13 | 248 | 1.6 | 3.2 | 0.00 | 0.00 | 0.00 | 49 | 1004.7 |
| 20260507203357 | 15 | 228 | 3.2 | 3.2 | 0.00 | 0.00 | 0.00 | 46 | 1005.0 |
| 20260507202853 | 13 | 247 | 4.8 | 4.8 | 0.00 | 0.00 | 0.00 | 51 | 1004.9 |
| 20260507202349 | 14 | 286 | 8.0 | 11.3 | 0.00 | 0.00 | 0.00 | 46 | 1004.7 |
| 20260507201845 | 14 | 245 | 4.8 | 8.0 | 0.00 | 0.00 | 0.00 | 46 | 1004.6 |
| 20260507201340 | 14 | 254 | 4.8 | 4.8 | 0.00 | 0.00 | 0.00 | 46 | 1004.6 |
| 20260507200837 | 14 | 232 | 9.7 | 11.3 | 0.00 | 0.00 | 0.00 | 44 | 1004.8 |
| 20260507200333 | 12 | 260 | 4.8 | 4.8 | 0.00 | 0.00 | 0.00 | 48 | 1005.0 |
| 20260507195829 | 12 | 203 | 4.8 | 8.0 | 0.00 | 0.00 | 0.00 | 51 | 1005.1 |
| 20260507195327 | 12 | 220 | 3.2 | 4.8 | 0.00 | 0.00 | 0.00 | 52 | 1005.1 |
| 20260507194824 | 13 | 256 | 3.2 | 4.8 | 0.00 | 0.00 | 0.00 | 51 | 1005.2 |
| 20260507194320 | 13 | 243 | 3.2 | 3.2 | 0.00 | 0.00 | 0.00 | 50 | 1005.0 |
| 20260507193817 | 13 | 242 | 1.6 | 1.6 | 0.00 | 0.00 | 0.00 | 50 | 1005.1 |
| 20260507193314 | 12 | 244 | 3.2 | 4.8 | 0.00 | 0.00 | 0.00 | 51 | 1005.1 |
| 20260507192809 | 13 | 238 | 1.6 | 3.2 | 0.00 | 0.00 | 0.00 | 50 | 1004.9 |
| 20260507192307 | 15 | 245 | 4.8 | 4.8 | 0.00 | 0.00 | 0.00 | 46 | 1005.2 |
| 20260507191803 | 15 | 221 | 1.6 | 3.2 | 0.00 | 0.00 | 0.00 | 53 | 1005.2 |
| 20260507191259 | 15 | 252 | 4.8 | 8.0 | 0.00 | 0.00 | 0.00 | 48 | 1005.2 |
| 20260507190756 | 15 | 242 | 6.4 | 12.9 | 0.00 | 0.00 | 0.00 | 48 | 1005.3 |
| 20260507190255 | 15 | 237 | 1.6 | 3.2 | 0.00 | 0.00 | 0.00 | 52 | 1005.1 |
| 20260507185753 | 13 | 269 | 3.2 | 3.2 | 0.00 | 0.00 | 0.00 | 52 | 1005.0 |
| 20260507185249 | 13 | 218 | 3.2 | 4.8 | 0.00 | 0.00 | 0.00 | 51 | 1005.1 |
| 20260507184747 | 13 | 233 | 4.8 | 4.8 | 0.00 | 0.00 | 0.00 | 51 | 1005.4 |
| 20260507184245 | 14 | 238 | 0.0 | 1.6 | 0.00 | 0.00 | 0.00 | 53 | 1005.1 |
| 20260507183741 | 13 | 249 | 3.2 | 4.8 | 0.00 | 0.00 | 0.00 | 51 | 1005.1 |
| 20260507183238 | 14 | 227 | 4.8 | 8.0 | 0.00 | 0.00 | 0.00 | 48 | 1005.0 |
| 20260507182736 | 14 | 242 | 3.2 | 3.2 | 0.00 | 0.00 | 0.00 | 50 | 1005.3 |
| 20260507182230 | 13 | 242 | 1.6 | 3.2 | 0.00 | 0.00 | 0.00 | 51 | 1005.2 |
| 20260507181728 | 14 | 212 | 4.8 | 11.3 | 0.00 | 0.00 | 0.00 | 49 | 1005.1 |
| 20260507181224 | 13 | 258 | 4.8 | 4.8 | 0.00 | 0.00 | 0.00 | 49 | 1005.3 |
| 20260507180720 | 14 | 230 | 4.8 | 4.8 | 0.00 | 0.00 | 0.00 | 49 | 1005.0 |
| 20260507180217 | 13 | 256 | 3.2 | 3.2 | 0.00 | 0.00 | 0.00 | 49 | 1005.1 |
| 20260507175713 | 13 | 231 | 4.8 | 4.8 | 0.00 | 0.00 | 0.00 | 48 | 1005.3 |
| 20260507175210 | 14 | 269 | 4.8 | 4.8 | 0.00 | 0.00 | 0.00 | 48 | 1005.3 |
| 20260507174708 | 13 | 239 | 1.6 | 1.6 | 0.00 | 0.00 | 0.00 | 51 | 1005.6 |
| 20260507174205 | 13 | 234 | 4.8 | 4.8 | 0.00 | 0.00 | 0.00 | 49 | 1005.2 |
| 20260507173703 | 13 | 244 | 3.2 | 3.2 | 0.00 | 0.00 | 0.00 | 51 | 1005.4 |
| 20260507173159 | 13 | 210 | 3.2 | 3.2 | 0.00 | 0.00 | 0.00 | 53 | 1005.4 |
| 20260507172656 | 13 | 229 | 3.2 | 3.2 | 0.00 | 0.00 | 0.00 | 52 | 1005.6 |
| 20260507172153 | 14 | 238 | 4.8 | 4.8 | 0.00 | 0.00 | 0.00 | 49 | 1005.6 |
| 20260507171653 | 15 | 238 | 4.8 | 8.0 | 0.00 | 0.00 | 0.00 | 49 | 1005.5 |
| 20260507171150 | 14 | 228 | 4.8 | 4.8 | 0.00 | 0.00 | 0.00 | 51 | 1005.3 |
| 20260507170647 | 13 | 213 | 4.8 | 8.0 | 0.00 | 0.00 | 0.00 | 49 | 1005.5 |
| 20260507170144 | 13 | 240 | 4.8 | 4.8 | 0.00 | 0.00 | 0.00 | 49 | 1005.5 |
| 20260507165640 | 12 | 214 | 4.8 | 8.0 | 0.00 | 0.00 | 0.00 | 49 | 1005.5 |
| 20260507165136 | 12 | 214 | 3.2 | 4.8 | 0.00 | 0.00 | 0.00 | 50 | 1005.5 |
| 20260507164632 | 13 | 233 | 8.0 | 8.0 | 0.00 | 0.00 | 0.00 | 47 | 1005.6 |
| 20260507164130 | 13 | 229 | 1.6 | 3.2 | 0.00 | 0.00 | 0.00 | 52 | 1005.5 |
| 20260507163627 | 13 | 217 | 6.4 | 8.0 | 0.00 | 0.00 | 0.00 | 49 | 1005.6 |
| 20260507163125 | 13 | 240 | 4.8 | 4.8 | 0.00 | 0.00 | 0.00 | 50 | 1005.7 |
| 20260507162620 | 13 | 231 | 1.6 | 1.6 | 0.00 | 0.00 | 0.00 | 47 | 1005.4 |
| 20260507162117 | 13 | 238 | 1.6 | 3.2 | 0.00 | 0.00 | 0.00 | 53 | 1005.6 |
| 20260507161613 | 12 | 304 | 3.2 | 4.8 | 0.00 | 0.00 | 0.00 | 50 | 1005.5 |
| 20260507161110 | 12 | 249 | 4.8 | 9.7 | 0.00 | 0.00 | 0.00 | 48 | 1005.6 |
| 20260507160606 | 13 | 244 | 1.6 | 3.2 | 0.00 | 0.00 | 0.00 | 51 | 1005.6 |
| 20260507155557 | 13 | 241 | 0.0 | 0.0 | 0.00 | 0.00 | 0.00 | 50 | 1005.5 |
| 20260507155055 | 13 | 243 | 1.6 | 1.6 | 0.00 | 0.00 | 0.00 | 47 | 1005.6 |
| 20260507154552 | 12 | 314 | 8.0 | 11.3 | 0.00 | 0.00 | 0.00 | 47 | 1005.7 |
| 20260507154049 | 13 | 246 | 3.2 | 3.2 | 0.00 | 0.00 | 0.00 | 49 | 1005.7 |
| 20260507153545 | 12 | 242 | 1.6 | 1.6 | 0.00 | 0.00 | 0.00 | 51 | 1005.7 |
| 20260507153042 | 12 | 231 | 4.8 | 4.8 | 0.00 | 0.00 | 0.00 | 53 | 1005.5 |
| 20260507152538 | 13 | 245 | 1.6 | 1.6 | 0.00 | 0.00 | 0.00 | 49 | 1005.7 |
| 20260507152034 | 12 | 239 | 3.2 | 3.2 | 0.00 | 0.00 | 0.00 | 47 | 1005.6 |
| 20260507151530 | 12 | 252 | 4.8 | 4.8 | 0.00 | 0.00 | 0.00 | 52 | 1005.7 |
| 20260507151028 | 12 | 251 | 3.2 | 3.2 | 0.00 | 0.00 | 0.00 | 50 | 1005.5 |
| 20260507150525 | 12 | 241 | 1.6 | 3.2 | 0.00 | 0.00 | 0.00 | 50 | 1005.5 |
| 20260507150022 | 12 | 204 | 6.4 | 9.7 | 0.00 | 0.00 | 0.00 | 50 | 1005.5 |
| 20260507145516 | 12 | 240 | 3.2 | 4.8 | 0.00 | 0.00 | 0.00 | 51 | 1005.6 |
| 20260507145015 | 12 | 249 | 4.8 | 8.0 | 0.00 | 0.00 | 0.00 | 51 | 1005.8 |
| 20260507144511 | 11 | 207 | 4.8 | 8.0 | 0.00 | 0.00 | 0.00 | 48 | 1005.7 |
| 20260507144009 | 12 | 222 | 3.2 | 4.8 | 0.00 | 0.00 | 0.00 | 52 | 1005.6 |
| 20260507143505 | 12 | 231 | 1.6 | 1.6 | 0.00 | 0.00 | 0.00 | 51 | 1005.7 |
| 20260507143003 | 11 | 245 | 4.8 | 4.8 | 0.00 | 0.00 | 0.00 | 55 | 1005.9 |
| 20260507142458 | 11 | 198 | 4.8 | 4.8 | 0.00 | 0.00 | 0.00 | 54 | 1005.7 |
| 20260507141955 | 12 | 220 | 1.6 | 3.2 | 0.00 | 0.00 | 0.00 | 54 | 1005.9 |
| 20260507141451 | 12 | 204 | 6.4 | 9.7 | 0.00 | 0.00 | 0.00 | 54 | 1005.8 |
| 20260507140948 | 11 | 232 | 1.6 | 1.6 | 0.00 | 0.00 | 0.00 | 60 | 1005.8 |
| 20260507140444 | 12 | 212 | 4.8 | 8.0 | 0.00 | 0.00 | 0.00 | 57 | 1005.9 |
| 20260507135942 | 12 | 243 | 1.6 | 1.6 | 0.00 | 0.00 | 0.00 | 60 | 1006.1 |
| 20260507135439 | 11 | 224 | 3.2 | 3.2 | 0.00 | 0.00 | 0.00 | 61 | 1005.9 |
| 20260507134936 | 11 | 219 | 1.6 | 3.2 | 0.00 | 0.00 | 0.00 | 61 | 1006.1 |
| 20260507134432 | 11 | 240 | 1.6 | 1.6 | 0.00 | 0.00 | 0.00 | 65 | 1006.0 |
| 20260507133929 | 10 | 221 | 1.6 | 1.6 | 0.00 | 0.00 | 0.00 | 69 | 1006.0 |
| 20260507133425 | 10 | 233 | 0.0 | 1.6 | 0.00 | 0.00 | 0.00 | 68 | 1006.1 |
| 20260507132924 | 11 | 240 | 1.6 | 1.6 | 0.00 | 0.00 | 0.00 | 65 | 1006.2 |
| 20260507132419 | 11 | 231 | 0.0 | 0.0 | 0.00 | 0.00 | 0.00 | 67 | 1006.1 |
| 20260507131916 | 11 | 235 | 3.2 | 3.2 | 0.00 | 0.00 | 0.00 | 67 | 1006.1 |
| 20260507131413 | 10 | 227 | 1.6 | 3.2 | 0.00 | 0.00 | 0.00 | 69 | 1006.3 |
| 20260507130910 | 10 | 237 | 1.6 | 1.6 | 0.00 | 0.00 | 0.00 | 70 | 1006.1 |
| 20260507130407 | 10 | 231 | 1.6 | 1.6 | 0.00 | 0.00 | 0.00 | 72 | 1006.1 |
| 20260507125906 | 10 | 226 | 1.6 | 1.6 | 0.00 | 0.00 | 0.00 | 71 | 1006.1 |
| 20260507125403 | 9 | 225 | 1.6 | 1.6 | 0.00 | 0.00 | 0.00 | 72 | 1006.1 |
| 20260507124900 | 9 | 230 | 0.0 | 0.0 | 0.00 | 0.00 | 0.00 | 75 | 1006.1 |
| 20260507124356 | 8 | 227 | 3.2 | 3.2 | 0.00 | 0.00 | 0.00 | 75 | 1006.0 |
| 20260507123855 | 8 | 239 | 0.0 | 0.0 | 0.00 | 0.00 | 0.00 | 78 | 1006.1 |
| 20260507123352 | 7 | 222 | 1.6 | 3.2 | 0.00 | 0.00 | 0.00 | 78 | 1006.1 |
| 20260507122848 | 8 | 228 | 0.0 | 0.0 | 0.00 | 0.00 | 0.00 | 80 | 1006.1 |
| 20260507122343 | 7 | 238 | 0.0 | 0.0 | 0.00 | 0.00 | 0.00 | 83 | 1006.3 |
| 20260507121840 | 6 | 224 | 1.6 | 1.6 | 0.00 | 0.00 | 0.00 | 86 | 1006.1 |
| 20260507121335 | 6 | 229 | 0.0 | 1.6 | 0.00 | 0.00 | 0.00 | 91 | 1006.1 |
| 20260507120832 | 5 | 231 | 4.8 | 4.8 | 0.00 | 0.00 | 0.00 | 95 | 1006.0 |
| 20260507120329 | 5 | 237 | 1.6 | 1.6 | 0.00 | 0.00 | 0.00 | 97 | 1005.9 |